Location: Tamazert
(32.6352°N, 5.2072°W)
Time: 05:05:56
(UTC+00:00)

Vanguard 1 Rocket - Pass Details

Date: 10 October 2022
Orbit: 650 x 4225 km, 34.3° (Epoch: 05 December)

Event Time Altitude Azimuth Distance (km) Brightness Sun altitude
Rises 22:24:43 0° 284° (WNW) 7,734 12.6 -54.9°
Reaches altitude 10° 22:30:41 10° 284° (WNW) 6,240 11.9 -55.8°
Enters shadow 22:41:42 41° 279° (W) 3,249 10.1 -57.4°
Maximum altitude 22:48:01 79° 201° (SSW) 1,974 - -58.3°
Drops below altitude 10° 22:56:27 10° 116° (ESE) 3,262 - -59.4°
Sets 22:58:36 0° 115° (ESE) 3,957 - -59.7°
